Regional Weather Roundup
Issued by NWS

Home | Current Version | Previous Version | Graphics & Text | Print | Product List | Glossary On
Versions: 1 2 3 4 5 6 7 8 9 10 11 12 13 14 15 16 17 18 19 20 21 22 23 24 25 26 27 28 29 30 31 32 33 34 35 36 37 38 39 40 41 42 43 44 45 46 47 48 49 50
000
ASUS43 KBIS 171302
RWRND

NORTH DAKOTA REGIONAL WEATHER ROUNDUP
NATIONAL WEATHER SERVICE BISMARCK ND
800 AM CDT THU AUG 17 2017

NOTE: "FAIR" INDICATES FEW OR NO CLOUDS BELOW 12,000 FEET WITH NO
SIGNIFICANT WEATHER AND/OR OBSTRUCTIONS TO VISIBILITY.


NDZ001>003-009>011-017-171400-
NORTHWEST NORTH DAKOTA

CITY           SKY/WX    TMP DP  RH WIND       PRES   REMARKS
WILLISTON      SUNNY     63  55  75 SW3       29.82S
MINOT          CLOUDY    61  55  81 S7        29.85F
MINOT AFB      CLOUDY    58  55  88 S5        29.84S
$$

NDZ018>021-031>035-040>046-171400-
SOUTHWEST NORTH DAKOTA

CITY           SKY/WX    TMP DP  RH WIND       PRES   REMARKS
BISMARCK       SUNNY     57  55  93 CALM      29.91S
DICKINSON      SUNNY     60  50  69 S9        29.87R
GARRISON         N/A     59  57  93 CALM      29.87S
HETTINGER ARPT SUNNY     59  48  67 SE8       29.91S
$$

NDZ004>008-012>016-024-026-027-054-171400-
NORTHEAST NORTH DAKOTA

CITY           SKY/WX    TMP DP  RH WIND       PRES   REMARKS
GRAND FORKS    FOG       59  59 100 N12       29.83S VSB 1/4
GRND FRKS AFB  FOG       59  59 100 N5        29.84S VSB 1/4
DEVILS LAKE    MOSUNNY   57  57 100 NW3       29.88S
$$

NDZ022-023-025-028>030-036>039-047>053-171400-
SOUTHEAST NORTH DAKOTA

CITY           SKY/WX    TMP DP  RH WIND       PRES   REMARKS
FARGO          CLOUDY    62  61  96 N16       29.81R
JAMESTOWN      SUNNY     58  56  93 NW7       29.87R
$$





USA.gov is the U.S. government's official web portal to all federal, state and local government web resources and services.